{"data":{"norad_id":60345,"epoch":"2026-05-25T02:05:04.555392Z","epoch_age_seconds":67467,"freshness":"FRESH","line1":"1 60345U 24136S   26145.08685828 -.00000222  00000+0  46464-5 0  9992","line2":"2 60345  53.1610  80.6377 0001318  91.6122 268.5030 15.30194916101365","mean_motion":15.30194916,"eccentricity":0.0001318,"inclination_deg":53.161,"raan_deg":80.6377,"arg_perigee_deg":91.6122,"mean_anomaly_deg":268.503,"bstar":4.6464e-6,"rev_number":10136,"period_min":94.105658366989,"perigee_km":474.32697556549,"apogee_km":476.13352317242,"semimajor_km":6853.367249369,"source":"CELESTRAK","updated_at":"2026-05-25T13:38:19.235861Z"}}